Temperature
16 16 16 17 17 17 17 17 18 18 18 18 18 17 17 16 16 16 16 16 16 16 16 16 15 15 15 15 15 15 15 15 15 15 14 14 14 14
16 16 16 17 17 17 17 17 17 18 18 18 18 17 17 17 16 16 16 16 16 16 16 16 16 15 15 15 15 15 15 15 15 14 14 14 14 14
16 16 16 16 16 16 16 16 17 17 17 18 17 17 16 16 16 16 16 16 16 16 16 16 16 15 15 15 15 15 15 15 15 14 14 14 14 14
16 16 16 16 16 16 16 16 16 16 16 17 17 17 16 16 16 16 16 16 16 16 16 16 16 15 15 15 15 15 15 15 14 14 14 14 14 14
16 16 16 16 16 16 16 16 16 16 16 16 16 16 16 16 16 16 16 16 16 16 16 16 16 15 15 15 15 15 15 15 14 14 14 14 14 14
16 16 16 16 16 16 16 16 16 16 16 16 16 16 16 16 15 16 16 16 16 16 16 15 15 15 15 15 15 15 15 15 14 14 14 14 14 13
16 16 16 16 16 16 16 16 15 15 16 16 16 16 16 16 16 16 16 16 16 16 15 15 15 15 15 15 15 15 15 14 14 14 14 14 13 13
16 16 16 16 16 16 16 16 15 15 15 15 16 16 16 15 15 15 16 16 16 16 15 15 15 15 15 14 15 14 14 14 14 14 13 13 13 13
16 16 16 16 16 15 15 15 15 15 15 15 15 15 15 15 15 15 15 15 15 15 15 15 15 15 15 15 14 14 14 14 13 13 13 13 12 12
15 15 15 15 15 15 15 15 15 15 15 15 15 14 14 14 14 14 14 14 14 14 14 14 15 14 14 14 14 13 13 13 13 13 12 12 12 12
15 15 15 15 15 15 15 14 14 14 15 15 14 14 14 14 14 14 14 14 14 14 14 13 14 14 14 14 13 13 13 12 12 12 12 12 11 11
15 15 15 15 15 15 15 14 14 14 14 14 14 14 14 14 14 13 13 13 14 14 14 13 13 13 13 13 13 12 12 12 11 11 11 11 11 11
15 15 15 15 15 15 14 14 14 14 14 13 13 14 13 13 13 13 13 13 13 13 13 12 12 12 12 12 12 12 12 11 11 11 11 11 10 10
15 14 14 14 14 14 14 14 14 13 13 13 13 13 13 13 12 12 12 12 12 12 12 11 11 11 11 11 11 11 11 11 11 10 10 10 10 10
14 14 14 14 14 13 13 13 13 13 13 13 13 12 12 12 12 12 11 11 11 11 11 11 10 10 10 10 10 11 10 10 10 10 10 9 9 9
13 13 13 13 13 13 13 13 12 12 12 12 12 12 12 11 11 11 11 11 11 11 10 10 10 10 9 9 9 10 10 10 10 9 9 9 9 9
13 13 12 12 12 12 12 12 12 11 11 11 11 11 11 11 11 11 10 10 10 10 10 10 9 9 9 9 9 9 9 9 9 9 8 8 9 9
13 12 12 12 12 11 11 11 11 11 11 10 10 10 10 10 10 10 10 10 10 10 9 9 9 9 9 9 9 8 9 9 8 8 8 8 8 8
12 11 11 11 11 11 11 10 10 10 10 10 10 10 9 9 9 9 9 9 9 9 9 8 8 8 8 9 9 8 8 8 7 7 7 7 7 8
11 10 10 10 10 10 10 10 9 9 9 9 9 9 9 9 9 9 8 8 8 8 8 8 8 8 7 8 8 8 7 7 7 7 7 7 7 7
9 9 9 9 9 9 9 9 8 8 8 8 8 8 8 8 8 8 8 7 7 7 7 7 7 7 6 7 7 7 7 7 6 6 6 6 6 7
8 8 8 8 8 8 8 7 7 7 7 7 7 7 7 7 7 7 7 7 7 7 7 7 6 6 6 6 6 6 6 6 6 6 6 6 5 6
7 7 7 7 7 7 7 7 7 7 6 6 6 6 6 6 6 6 6 6 6 6 6 6 6 6 6 6 6 6 6 6 6 6 6 6 6 5
Wind_Speed
10 11 10 8 7 7 6 6 6 6 6 6 5 5 6 6 6 9 9 12 14 14 14 14 14 13 13 13 14 14 14 15 15 15 15 15 15 15
9 9 9 8 7 7 7 7 7 7 6 4 4 5 4 6 8 9 9 10 14 15 15 15 15 15 14 14 15 15 15 15 16 16 16 16 16 16
11 11 11 9 7 7 7 7 7 7 7 7 5 4 5 7 5 8 10 10 11 17 16 16 15 15 15 15 15 15 15 15 15 16 16 16 16 16
13 11 11 10 10 9 8 8 8 7 8 9 6 5 6 7 6 7 9 10 10 13 16 16 16 15 15 15 15 15 15 15 15 15 15 15 15 15
12 12 11 11 11 10 9 9 8 8 8 8 8 5 6 6 6 8 9 7 10 10 14 16 16 16 16 15 15 15 14 14 14 15 15 15 14 14
11 11 11 11 11 11 10 9 8 8 8 8 8 7 7 6 6 8 8 8 8 9 8 9 12 15 17 17 16 15 15 14 14 14 14 14 14 14
10 10 11 10 9 9 8 9 9 9 8 8 8 7 7 6 7 7 8 7 8 8 8 8 9 10 12 16 18 16 15 14 14 14 14 14 15 15
10 10 10 10 11 10 9 7 8 9 9 8 8 8 7 7 6 7 7 8 8 6 8 9 8 9 9 11 11 14 14 14 14 14 14 15 16 16
10 9 9 10 11 11 11 10 10 10 9 9 10 9 7 7 7 9 8 9 9 7 6 9 9 9 9 8 8 10 12 13 14 15 15 16 16 17
10 10 10 8 9 9 9 10 10 10 10 10 10 9 8 6 7 9 8 9 10 9 8 10 9 9 8 7 8 11 12 13 14 15 16 16 16 17
9 9 9 9 7 7 9 9 10 9 10 10 9 7 4 3 5 7 8 9 10 8 6 8 9 9 8 9 7 13 14 14 15 15 16 16 16 16
7 7 7 7 6 8 9 9 10 9 8 7 8 8 8 8 9 9 9 9 9 8 4 5 8 7 8 7 6 6 9 13 16 17 17 17 15 13
6 6 6 9 8 8 8 7 7 7 7 7 7 6 6 6 6 8 7 7 8 8 4 3 7 7 8 8 8 7 8 8 9 11 15 17 16 13
5 4 4 9 9 8 7 5 4 5 6 5 5 5 5 4 4 4 4 5 5 6 6 5 6 7 8 10 9 8 8 9 9 9 9 9 13 17
2 2 4 7 8 6 5 5 5 5 4 5 4 4 4 3 3 3 4 4 6 7 6 6 7 7 8 9 10 10 9 9 8 8 8 9 9 9
3 4 6 5 4 2 3 3 3 3 3 3 3 3 3 3 4 4 4 4 5 6 6 7 7 8 9 10 10 10 9 9 8 8 8 10 10 11
4 3 3 3 3 2 2 2 2 2 2 3 3 3 3 3 3 3 4 5 6 6 6 5 6 7 9 9 9 9 9 9 8 7 8 11 11 10
5 3 2 2 2 2 2 2 2 2 2 2 3 3 3 4 4 4 4 5 6 6 6 5 5 6 7 7 8 9 9 9 8 7 9 11 12 10
4 3 2 1 1 1 0 0 1 1 1 2 2 3 3 4 4 4 4 5 5 5 5 5 5 6 8 9 6 5 8 9 9 9 9 10 12 11
4 3 2 2 2 1 1 1 1 1 1 2 2 3 3 4 4 4 4 5 5 6 6 6 5 6 8 9 9 8 7 8 9 10 10 11 11 10
5 5 4 3 3 3 3 2 2 2 2 2 2 3 3 3 4 4 4 4 5 6 6 6 5 5 7 8 8 8 7 5 7 9 11 11 11 11
6 6 5 5 4 4 4 3 2 2 2 2 3 3 3 4 4 5 5 5 5 5 6 6 5 5 6 7 8 9 9 8 8 11 12 11 9 9
6 6 5 5 5 4 4 4 5 4 4 4 4 4 4 4 4 5 5 5 5 6 6 6 6 5 6 7 8 8 10 10 9 8 8 8 13 15
Wind_Direction
222 219 228 231 229 234 239 245 251 253 239 211 222 210 222 228 192 221 227 204 213 223 229 233 237 241 244 246 249 252 254 256 257 258 260 260 260 261
224 226 225 228 220 227 234 238 246 258 264 249 225 224 216 237 200 227 234 200 214 222 228 232 236 240 244 248 251 253 254 256 258 259 261 262 261 261
219 219 220 227 222 226 229 233 238 245 253 257 247 226 213 247 221 230 235 229 224 212 221 229 235 240 244 247 250 252 254 256 257 259 261 261 262 262
220 219 220 218 220 231 231 233 235 242 250 256 255 237 222 232 233 239 241 236 244 205 210 224 231 237 241 244 245 248 252 254 256 258 259 260 261 261
219 218 220 219 220 223 226 232 232 233 240 250 249 243 236 232 232 238 244 248 253 228 207 218 225 232 236 238 241 244 247 251 254 257 259 261 262 262
218 218 220 220 222 223 223 228 233 237 234 244 248 239 232 224 233 244 243 229 244 253 238 228 221 224 230 234 237 240 243 247 252 256 258 259 261 263
219 220 222 222 227 227 230 224 224 230 234 238 243 243 237 229 237 243 250 252 243 246 251 246 229 230 227 229 230 233 237 243 248 251 254 257 261 263
218 220 221 215 216 215 233 243 240 232 238 243 246 246 247 244 249 255 258 258 258 239 246 256 253 253 247 247 213 211 226 237 244 248 252 258 262 264
219 220 225 219 207 218 214 218 232 239 243 247 251 255 251 245 252 252 253 263 270 270 258 263 258 257 258 255 189 205 223 236 243 249 255 259 263 265
223 222 223 224 218 216 219 220 226 226 223 229 244 252 257 263 250 257 268 260 259 255 252 265 269 266 267 262 202 210 225 236 245 253 257 260 264 267
223 221 221 222 200 193 217 227 233 234 223 223 236 250 274 273 265 258 256 258 262 258 236 253 269 275 273 267 233 204 221 235 245 251 254 256 262 269
213 214 211 217 186 185 215 227 234 239 239 219 218 228 235 230 224 239 253 258 265 266 248 249 271 280 277 267 265 248 238 238 239 243 246 250 257 269
211 212 203 174 179 190 216 230 238 246 241 235 229 225 225 228 223 226 242 258 266 266 277 260 275 279 276 281 282 280 279 277 266 258 246 243 243 250
217 212 171 156 171 185 206 231 238 240 240 237 237 234 231 233 236 236 240 260 274 278 292 290 278 283 284 284 284 283 281 281 280 283 287 266 244 242
217 108 120 152 168 177 198 217 219 225 229 230 234 237 242 246 245 238 233 238 250 257 261 262 268 276 276 279 284 288 290 288 283 282 284 285 288 283
191 153 150 152 162 164 169 183 211 233 239 234 235 242 247 242 238 247 253 254 257 260 244 243 252 265 271 276 279 283 287 288 290 289 292 290 286 283
165 163 169 164 167 174 178 180 194 210 225 243 248 250 251 252 254 255 261 264 266 274 275 263 254 254 261 269 276 279 286 289 292 302 299 293 292 291
146 145 153 169 178 183 186 190 195 218 239 244 251 256 260 261 263 265 268 270 273 276 279 283 283 280 275 263 246 275 287 294 301 301 294 293 295 298
129 131 137 144 140 149 163 246 279 304 291 275 272 274 272 269 269 273 275 276 279 283 284 285 284 286 289 291 279 242 287 297 296 293 291 292 294 298
88 91 84 78 76 67 46 20 6 1 325 302 300 300 295 289 285 283 283 288 288 289 288 286 287 291 294 297 301 295 264 283 294 297 300 300 297 291
70 70 65 57 49 43 32 26 26 18 4 327 324 321 311 304 301 297 294 290 287 291 293 298 317 300 289 286 285 291 299 273 278 289 300 301 304 305
61 58 54 52 47 40 35 25 20 20 8 352 353 342 331 321 313 308 308 306 302 300 301 305 312 304 297 294 296 303 307 310 286 259 256 263 289 302
55 52 47 43 44 40 36 33 27 21 13 1 352 344 339 330 320 314 312 309 309 309 306 304 306 302 298 295 297 300 303 306 307 305 291 252 245 254
Height
1560 1562 1564 1566 1567 1569 1570 1571 1572 1572 1572 1573 1574 1574 1574 1575 1574 1574 1574 1574 1574 1575 1575 1575 1575 1575 1575 1575 1574 1574 1574 1573 1573 1572 1572 1571 1570 1569
1556 1558 1560 1562 1563 1565 1566 1567 1568 1569 1569 1570 1570 1571 1571 1572 1571 1571 1572 1571 1571 1571 1571 1572 1572 1572 1572 1571 1571 1571 1570 1570 1569 1568 1568 1567 1566 1565
1552 1554 1555 1557 1559 1561 1562 1564 1565 1566 1566 1567 1568 1568 1567 1568 1568 1568 1568 1568 1568 1568 1568 1568 1568 1568 1568 1567 1567 1566 1566 1565 1565 1564 1563 1562 1561 1560
1547 1549 1551 1553 1554 1556 1558 1559 1561 1562 1563 1563 1564 1564 1563 1564 1564 1564 1565 1565 1566 1565 1564 1564 1564 1564 1563 1563 1562 1562 1561 1560 1560 1559 1558 1557 1556 1555
1543 1544 1546 1548 1550 1552 1553 1555 1557 1558 1558 1559 1560 1560 1560 1560 1560 1560 1561 1560 1561 1561 1559 1559 1559 1558 1558 1558 1557 1556 1556 1555 1554 1553 1552 1551 1550 1549
1538 1539 1541 1543 1545 1547 1548 1550 1552 1553 1554 1555 1556 1556 1556 1556 1556 1557 1557 1557 1556 1557 1556 1555 1553 1553 1552 1552 1551 1550 1550 1549 1548 1547 1546 1545 1544 1542
1533 1534 1536 1538 1540 1542 1544 1546 1547 1548 1550 1551 1551 1552 1553 1553 1553 1553 1553 1553 1552 1552 1552 1551 1550 1548 1547 1546 1545 1544 1544 1543 1542 1541 1540 1539 1537 1536
1528 1529 1532 1533 1535 1537 1539 1541 1542 1544 1545 1546 1547 1547 1548 1549 1549 1549 1549 1549 1549 1548 1547 1546 1546 1544 1543 1542 1540 1538 1538 1537 1536 1535 1534 1532 1531 1530
1522 1525 1527 1529 1530 1532 1534 1535 1536 1538 1539 1540 1541 1542 1543 1544 1544 1544 1544 1544 1543 1543 1542 1541 1540 1539 1538 1536 1534 1533 1531 1530 1529 1528 1527 1525 1524 1523
1518 1520 1522 1524 1525 1527 1529 1530 1531 1532 1533 1534 1535 1536 1538 1538 1538 1539 1539 1538 1537 1536 1536 1536 1535 1534 1532 1530 1528 1526 1525 1524 1523 1521 1520 1519 1517 1516
1514 1515 1517 1518 1520 1522 1523 1525 1526 1527 1528 1529 1529 1530 1531 1532 1533 1534 1534 1534 1533 1532 1531 1530 1529 1528 1527 1525 1523 1520 1519 1518 1516 1515 1513 1512 1510 1508
1509 1510 1512 1514 1515 1516 1518 1519 1520 1521 1523 1523 1524 1524 1525 1526 1526 1527 1528 1528 1527 1527 1525 1524 1524 1523 1521 1520 1518 1516 1514 1512 1510 1508 1507 1505 1503 1501
1505 1506 1508 1509 1510 1512 1513 1514 1515 1517 1518 1519 1519 1519 1519 1520 1520 1520 1521 1522 1522 1521 1521 1519 1518 1517 1516 1514 1513 1511 1509 1507 1505 1502 1500 1498 1496 1495
1502 1503 1504 1505 1506 1508 1509 1510 1511 1513 1514 1514 1515 1515 1515 1515 1515 1515 1515 1515 1515 1515 1514 1513 1512 1511 1510 1508 1506 1505 1503 1501 1499 1497 1495 1492 1490 1488
1498 1499 1500 1502 1503 1504 1505 1506 1507 1508 1509 1509 1510 1510 1510 1510 1511 1511 1510 1509 1509 1508 1508 1506 1506 1505 1504 1503 1500 1499 1497 1495 1493 1491 1489 1487 1484 1482
1494 1495 1497 1498 1499 1500 1500 1501 1502 1503 1504 1505 1505 1506 1506 1506 1506 1506 1506 1505 1504 1504 1502 1501 1500 1499 1498 1497 1495 1493 1491 1490 1488 1485 1483 1480 1478 1476
1492 1493 1494 1495 1495 1496 1497 1497 1498 1499 1500 1501 1501 1502 1502 1502 1501 1501 1500 1500 1500 1499 1498 1497 1495 1494 1492 1491 1490 1488 1486 1484 1482 1480 1476 1474 1472 1470
1489 1490 1491 1492 1493 1493 1494 1495 1496 1496 1497 1497 1497 1498 1498 1497 1497 1497 1496 1496 1496 1495 1494 1493 1491 1490 1488 1486 1485 1483 1481 1479 1477 1474 1471 1469 1466 1464
1487 1488 1489 1490 1491 1492 1492 1493 1493 1493 1494 1494 1494 1494 1494 1494 1493 1493 1492 1492 1491 1491 1489 1488 1487 1485 1484 1482 1480 1478 1476 1474 1471 1469 1467 1464 1461 1458
1485 1486 1487 1488 1489 1490 1490 1491 1491 1491 1491 1492 1492 1492 1492 1491 1490 1489 1488 1488 1487 1486 1485 1484 1483 1481 1480 1478 1475 1473 1471 1469 1467 1464 1461 1459 1456 1452
1486 1486 1487 1487 1488 1488 1488 1489 1489 1489 1489 1490 1490 1489 1488 1488 1487 1486 1485 1484 1483 1482 1481 1480 1478 1476 1474 1473 1471 1469 1467 1464 1462 1459 1456 1453 1450 1447
1487 1487 1487 1488 1487 1487 1487 1488 1488 1488 1488 1488 1487 1487 1486 1485 1484 1483 1482 1481 1479 1478 1477 1476 1474 1472 1471 1469 1467 1464 1462 1460 1457 1454 1452 1449 1446 1443
1488 1488 1488 1488 1488 1487 1487 1486 1486 1486 1486 1486 1485 1484 1484 1482 1481 1480 1479 1478 1476 1475 1474 1472 1470 1469 1467 1466 1463 1461 1458 1455 1453 1450 1448 1445 1442 1439